Location: Bh?mavarapp?du
(16.7041°N, 80.6518°E)
Time: 02:11:42
(UTC+00:00)

Cosmos 2369 Rocket - Pass Details

Date: 21 April 2021
Orbit: 828 x 853 km, 71.0° (Epoch: 15 May)

Event Time Altitude Azimuth Distance (km) Brightness Sun altitude
Exits shadow 22:14:22 16° 335° (NNW) 2,036 4.2 -28.8°
Drops below altitude 10° 22:15:46 10° 346° (NNW) 2,429 4.7 -28.5°
Sets 22:18:36 0° 359° (N) 3,366 5.6 -27.9°
